{"data":{"norad_id":57943,"epoch":"2026-09-19T11:45:03.940416Z","epoch_age_seconds":224948,"freshness":"STALE","line1":"1 57943U 23148J   26262.48962894 -.00002034  00000+0 -49092-4 0  9992","line2":"2 57943  53.1597 202.7066 0001282  98.7118 261.4029 15.34392909168116","mean_motion":15.34392909,"eccentricity":0.0001282,"inclination_deg":53.1597,"raan_deg":202.7066,"arg_perigee_deg":98.7118,"mean_anomaly_deg":261.4029,"bstar":-4.9092e-5,"rev_number":16811,"period_min":93.84819178671,"perigee_km":461.84731781389,"apogee_km":463.60131465537,"semimajor_km":6840.8613162346,"source":"CELESTRAK","updated_at":"2026-09-21T09:00:33.745762Z"}}